Location: Bazugues
(43.4465°N, 0.3432°E)
Time: 15:24:31
(UTC+00:00)

Cosmos 1703 - Visible Passes

Search period start: 11 April 2026 00:00
Search period end: 21 April 2026 00:00
Orbit: 407 x 413 km, 82.5° (Epoch: 11 April)

Date Brightness Start Highest point End Pass type
(mag) Time Alt. Az. Time Alt. Az. Time Alt. Az.
15 Apr 6.5 04:40:38 10° ESE 04:41:36 11° E 04:42:36 10° ENE visible
17 Apr 5.9 04:36:52 10° SE 04:38:59 16° E 04:41:07 10° NE visible
19 Apr 5.4 04:33:35 10° SSE 04:36:16 24° E 04:38:56 10° NE visible
